contact:dominique.lefevre@mio.osupytheas.fr, maurice.libes@osupytheas.fr, didier.mallarino@osupytheas.fr
Project:EMSO http://www.emso-fr.org/EMSO-France
Depth: 2436.0 m
Title:EMSO Ligure Ouest : Data MII capteur AQUADOPP
Date,Latitude,Longitude,X_East,Y_North,Z_Up,Amplitude_X,Amplitude_Y,Amplitude_Z,Batterie,SoundSpeed,Heading,Pitch,Roll,Pressure,TIS,Speed,Direction
, degrees North, degrees East, m.s-1, m.s-1,m.s-1, 1, 1, 1, Volt, m.s-1, degree, degree, degree, dbar, degree_C, m.s-1, degree
2024-05-05T01:04:03,42.805,6.029,0.003,-0.032,0.0,107.0,109.0,105.0,13.4,1505.2,5.7,-0.8,1.8,2472.033,13.28,0.032,174.6
2024-05-05T01:07:03,42.805,6.029,0.014,-0.023,0.032,107.0,106.0,105.0,13.4,1505.2,9.4,-0.7,1.8,2471.98,13.28,0.026,148.7
2024-05-05T01:10:02,42.805,6.029,0.031,-0.036,-0.004,107.0,106.0,102.0,13.3,1505.2,359.5,-0.8,1.8,2471.886,13.28,0.047,139.3
2024-05-05T01:13:03,42.805,6.029,0.039,-0.035,0.0,107.0,107.0,103.0,13.4,1505.2,353.6,-0.8,1.8,2471.849,13.28,0.052,131.9
2024-05-05T01:16:03,42.805,6.029,0.032,-0.046,0.005,107.0,106.0,104.0,13.4,1505.2,358.8,-0.8,1.8,2471.775,13.29,0.056,145.2
2024-05-05T01:19:03,42.805,6.029,0.029,-0.05,0.017,105.0,108.0,103.0,13.4,1505.2,0.0,-0.7,1.8,2471.747,13.29,0.057,149.9
2024-05-05T01:22:03,42.805,6.029,0.032,-0.035,-0.006,107.0,106.0,102.0,13.3,1505.2,1.0,-0.8,1.8,2471.704,13.29,0.047,137.6
2024-05-05T01:25:03,42.805,6.029,0.025,-0.027,-0.005,106.0,107.0,103.0,13.4,1505.2,4.9,-0.7,1.8,2471.697,13.29,0.036,137.2
2024-05-05T01:28:03,42.805,6.029,0.036,-0.043,-0.013,107.0,106.0,103.0,13.3,1505.2,8.2,-0.8,1.8,2471.638,13.29,0.056,140.1
2024-05-05T01:31:03,42.805,6.029,0.025,-0.027,-0.008,107.0,106.0,104.0,13.4,1505.2,357.2,-0.7,1.8,2471.645,13.29,0.036,137.2
2024-05-05T01:34:03,42.805,6.029,0.035,-0.003,-0.011,107.0,107.0,103.0,13.3,1505.2,357.4,-0.8,1.8,2471.62,13.29,0.035,94.9
2024-05-05T01:37:03,42.805,6.029,0.024,-0.052,-0.017,107.0,107.0,104.0,13.4,1505.2,2.1,-0.8,1.8,2471.597,13.29,0.057,155.2
2024-05-05T01:40:03,42.805,6.029,0.034,-0.019,-0.002,107.0,106.0,103.0,13.4,1505.2,359.4,-0.8,1.8,2471.613,13.29,0.038,119.2
2024-05-05T01:43:03,42.805,6.029,0.059,-0.028,0.0,107.0,106.0,103.0,13.4,1505.2,4.5,-0.8,1.8,2471.621,13.29,0.065,115.4
2024-05-05T01:46:03,42.805,6.029,0.05,-0.045,0.023,108.0,107.0,103.0,13.4,1505.2,353.6,-0.8,1.8,2471.608,13.29,0.067,132.0
2024-05-05T01:49:03,42.805,6.029,0.047,-0.003,0.017,107.0,107.0,103.0,13.4,1505.2,4.1,-0.8,1.8,2471.6,13.29,0.047,93.6
2024-05-05T01:52:03,42.805,6.029,0.047,-0.064,0.014,106.0,106.0,104.0,13.4,1505.2,6.0,-0.7,1.8,2471.594,13.29,0.079,143.7
2024-05-05T01:55:03,42.805,6.029,0.03,-0.059,-0.016,106.0,106.0,104.0,13.4,1505.2,9.7,-0.8,1.8,2471.599,13.29,0.066,153.0
2024-05-05T01:58:03,42.805,6.029,0.047,-0.043,0.029,107.0,106.0,102.0,13.4,1505.2,0.9,-0.8,1.8,2471.622,13.29,0.063,132.5
2024-05-05T02:04:03,42.805,6.029,0.025,-0.035,0.009,107.0,108.0,103.0,13.4,1505.2,359.4,-0.7,1.8,2471.661,13.28,0.043,144.5
2024-05-05T02:07:03,42.805,6.029,0.036,-0.068,0.004,107.0,107.0,104.0,13.3,1505.2,4.8,-0.8,1.8,2471.625,13.29,0.076,152.1
2024-05-05T02:10:03,42.805,6.029,0.04,-0.023,0.032,108.0,106.0,103.0,13.4,1505.2,6.0,-0.7,1.8,2471.613,13.29,0.046,119.9
2024-05-05T02:13:03,42.805,6.029,0.015,-0.042,0.005,106.0,108.0,102.0,13.4,1505.2,5.9,-0.8,1.8,2471.677,13.29,0.044,160.4
2024-05-05T02:16:03,42.805,6.029,0.043,-0.043,-0.009,107.0,107.0,102.0,13.3,1505.2,356.1,-0.8,1.8,2471.62,13.29,0.06,135.0
2024-05-05T02:19:03,42.805,6.029,0.038,-0.03,0.009,107.0,107.0,105.0,13.4,1505.2,357.8,-0.8,1.8,2471.622,13.29,0.048,128.3
2024-05-05T02:22:03,42.805,6.029,0.027,-0.031,0.017,106.0,108.0,103.0,13.4,1505.2,6.0,-0.8,1.8,2471.648,13.29,0.041,138.9
2024-05-05T02:25:03,42.805,6.029,0.027,-0.044,0.043,107.0,107.0,103.0,13.3,1505.2,10.5,-0.7,1.8,2471.641,13.29,0.051,148.5
2024-05-05T02:28:03,42.805,6.029,0.051,-0.011,0.0,107.0,107.0,104.0,13.4,1505.2,353.0,-0.8,1.8,2471.625,13.29,0.052,102.2
2024-05-05T02:31:03,42.805,6.029,0.021,-0.039,0.016,108.0,107.0,104.0,13.4,1505.2,1.5,-0.7,1.8,2471.627,13.29,0.044,151.7
2024-05-05T02:34:03,42.805,6.029,0.033,-0.028,0.002,107.0,107.0,104.0,13.4,1505.2,1.0,-0.7,1.8,2471.683,13.29,0.043,130.3
2024-05-05T02:37:03,42.805,6.029,0.04,-0.047,0.036,106.0,106.0,104.0,13.4,1505.2,358.4,-0.8,1.8,2471.598,13.29,0.061,139.6
2024-05-05T02:40:03,42.805,6.029,0.033,-0.038,0.009,107.0,107.0,104.0,13.3,1505.2,9.5,-0.8,1.8,2471.633,13.29,0.05,139.0
2024-05-05T02:43:03,42.805,6.029,0.035,-0.032,0.025,108.0,107.0,104.0,13.4,1505.2,355.3,-0.8,1.8,2471.651,13.29,0.047,132.4
2024-05-05T02:46:03,42.805,6.029,0.019,-0.033,-0.01,107.0,107.0,104.0,13.3,1505.2,356.7,-0.8,1.8,2471.665,13.29,0.038,150.1
2024-05-05T02:49:03,42.805,6.029,0.02,-0.022,0.003,108.0,107.0,103.0,13.3,1505.2,358.4,-0.7,1.8,2471.635,13.29,0.029,137.7
2024-05-05T02:52:03,42.805,6.029,0.006,-0.037,-0.003,107.0,107.0,103.0,13.4,1505.2,359.4,-0.8,1.9,2471.631,13.29,0.037,170.8
2024-05-05T02:55:03,42.805,6.029,0.026,-0.022,0.004,106.0,108.0,104.0,13.4,1505.2,5.3,-0.8,1.8,2471.621,13.29,0.034,130.2
2024-05-05T02:58:03,42.805,6.029,0.034,-0.033,0.037,106.0,108.0,103.0,13.4,1505.2,0.5,-0.7,1.8,2471.634,13.29,0.047,134.1
2024-05-05T03:04:03,42.805,6.029,0.024,-0.044,0.011,107.0,108.0,103.0,13.3,1505.2,3.8,-0.8,1.8,2471.762,13.28,0.05,151.4
2024-05-05T03:07:03,42.805,6.029,0.026,-0.042,0.019,109.0,107.0,104.0,13.3,1505.2,8.2,-0.8,1.8,2471.646,13.29,0.049,148.2
2024-05-05T03:10:03,42.805,6.029,0.047,-0.043,0.001,107.0,107.0,105.0,13.4,1505.2,3.9,-0.8,1.8,2471.662,13.29,0.063,132.5
2024-05-05T03:13:03,42.805,6.029,0.034,-0.042,0.007,108.0,108.0,103.0,13.4,1505.2,356.4,-0.8,1.8,2471.723,13.29,0.054,141.0
2024-05-05T03:16:03,42.805,6.029,0.003,-0.017,0.0,113.0,108.0,104.0,13.3,1505.2,3.3,-0.7,1.8,2471.721,13.29,0.017,170.0
2024-05-05T03:19:03,42.805,6.029,0.045,-0.05,0.027,109.0,106.0,104.0,13.4,1505.2,1.5,-0.8,1.8,2471.695,13.29,0.067,138.0
2024-05-05T03:22:03,42.805,6.029,0.02,-0.041,-0.001,107.0,108.0,104.0,13.4,1505.2,5.5,-0.7,1.8,2471.702,13.29,0.045,154.0
2024-05-05T03:25:03,42.805,6.029,0.035,-0.025,0.0,107.0,108.0,106.0,13.3,1505.2,353.6,-0.8,1.8,2471.69,13.29,0.043,125.5
2024-05-05T03:28:03,42.805,6.029,0.022,-0.037,0.025,107.0,108.0,105.0,13.4,1505.2,2.6,-0.7,1.8,2471.696,13.29,0.043,149.3
2024-05-05T03:31:03,42.805,6.029,0.05,-0.026,0.011,108.0,107.0,104.0,13.4,1505.2,3.3,-0.8,1.8,2471.712,13.29,0.056,117.5
2024-05-05T03:34:03,42.805,6.029,0.032,-0.045,0.022,107.0,108.0,104.0,13.4,1505.2,1.0,-0.7,1.8,2471.693,13.29,0.055,144.6
2024-05-05T03:37:03,42.805,6.029,0.03,-0.03,0.011,108.0,108.0,103.0,13.4,1505.2,5.0,-0.7,1.8,2471.691,13.29,0.042,135.0
2024-05-05T03:40:03,42.805,6.029,0.036,-0.031,0.022,107.0,107.0,104.0,13.4,1505.2,354.2,-0.8,1.8,2471.684,13.29,0.047,130.7
2024-05-05T03:43:03,42.805,6.029,0.019,-0.002,0.007,109.0,107.0,104.0,13.3,1505.2,0.0,-0.8,1.8,2471.676,13.29,0.019,96.0
2024-05-05T03:46:03,42.805,6.029,0.025,-0.048,0.027,108.0,106.0,104.0,13.4,1505.2,358.9,-0.8,1.8,2471.64,13.29,0.054,152.5
2024-05-05T03:49:03,42.805,6.029,0.037,-0.026,0.021,107.0,109.0,103.0,13.4,1505.2,2.1,-0.8,1.8,2471.721,13.29,0.045,125.1
2024-05-05T03:52:03,42.805,6.029,0.024,-0.053,0.005,107.0,107.0,103.0,13.4,1505.2,8.6,-0.7,1.8,2471.695,13.29,0.058,155.6
2024-05-05T03:55:03,42.805,6.029,0.03,-0.039,0.005,107.0,107.0,103.0,13.4,1505.2,1.0,-0.8,1.8,2471.657,13.29,0.049,142.4
2024-05-05T03:58:03,42.805,6.029,0.039,-0.041,-0.004,107.0,107.0,104.0,13.3,1505.2,5.5,-0.8,1.8,2471.686,13.29,0.056,136.4
2024-05-05T04:04:03,42.805,6.029,0.04,-0.037,0.004,106.0,107.0,104.0,13.4,1505.2,358.5,-0.8,1.8,2471.729,13.28,0.054,132.8
2024-05-05T04:07:03,42.805,6.029,0.025,-0.027,0.006,107.0,107.0,104.0,13.3,1505.2,358.9,-0.8,1.9,2471.676,13.29,0.036,137.2
2024-05-05T04:10:03,42.805,6.029,0.036,-0.024,0.02,107.0,107.0,104.0,13.4,1505.2,1.4,-0.8,1.8,2471.716,13.29,0.043,123.7
2024-05-05T04:13:03,42.805,6.029,0.028,-0.029,0.006,107.0,108.0,104.0,13.4,1505.2,0.5,-0.7,1.8,2471.719,13.29,0.04,136.0
2024-05-05T04:16:03,42.805,6.029,0.031,-0.026,-0.008,107.0,109.0,104.0,13.4,1505.2,6.5,-0.7,1.8,2471.738,13.29,0.04,130.0
2024-05-05T04:19:03,42.805,6.029,0.02,-0.013,0.027,107.0,107.0,104.0,13.3,1505.2,8.5,-0.7,1.8,2471.741,13.29,0.023,123.0
2024-05-05T04:22:03,42.805,6.029,0.035,-0.043,-0.009,108.0,106.0,103.0,13.4,1505.2,2.4,-0.7,1.8,2471.699,13.29,0.055,140.9
2024-05-05T04:25:03,42.805,6.029,0.02,-0.025,-0.02,107.0,108.0,103.0,13.4,1505.2,354.8,-0.8,1.8,2471.709,13.29,0.032,141.3
2024-05-05T04:28:03,42.805,6.029,0.043,-0.013,0.014,106.0,107.0,103.0,13.4,1505.2,354.1,-0.8,1.8,2471.76,13.29,0.044,106.8
2024-05-05T04:31:03,42.805,6.029,0.031,-0.037,0.004,106.0,108.0,104.0,13.4,1505.2,1.1,-0.8,1.8,2471.716,13.29,0.048,140.0
2024-05-05T04:34:03,42.805,6.029,0.015,-0.038,0.016,107.0,108.0,103.0,13.3,1505.2,6.8,-0.8,1.8,2471.712,13.29,0.04,158.5
2024-05-05T04:37:03,42.805,6.029,0.037,-0.054,0.009,107.0,108.0,103.0,13.3,1505.2,2.0,-0.8,1.8,2471.728,13.29,0.065,145.6
2024-05-05T04:40:03,42.805,6.029,0.033,-0.021,0.015,107.0,106.0,103.0,13.4,1505.2,3.7,-0.8,1.8,2471.702,13.29,0.039,122.5
2024-05-05T04:43:03,42.805,6.029,0.027,-0.014,-0.006,108.0,108.0,104.0,13.4,1505.2,1.9,-0.7,1.8,2471.705,13.29,0.03,117.4
2024-05-05T04:46:03,42.805,6.029,0.028,-0.031,0.022,109.0,107.0,103.0,13.4,1505.2,5.5,-0.8,1.8,2471.69,13.29,0.041,137.9
2024-05-05T04:49:03,42.805,6.029,0.037,-0.035,0.018,107.0,108.0,104.0,13.4,1505.2,1.0,-0.8,1.8,2471.707,13.29,0.05,133.4
2024-05-05T04:52:03,42.805,6.029,0.038,-0.03,0.01,107.0,107.0,104.0,13.4,1505.2,7.9,-0.8,1.8,2471.724,13.29,0.048,128.3
2024-05-05T04:55:03,42.805,6.029,0.033,-0.036,0.0,107.0,108.0,104.0,13.4,1505.2,356.2,-0.7,1.8,2471.717,13.29,0.048,137.5
2024-05-05T04:58:03,42.805,6.029,0.037,-0.027,0.029,107.0,108.0,103.0,13.3,1505.2,358.9,-0.7,1.8,2471.713,13.29,0.045,126.1
2024-05-05T05:04:03,42.805,6.029,0.037,-0.031,0.0,108.0,107.0,103.0,13.3,1505.2,3.5,-0.7,1.8,2471.739,13.28,0.048,130.0
2024-05-05T05:07:03,42.805,6.029,0.048,-0.053,-0.004,106.0,109.0,104.0,13.4,1505.2,358.9,-0.8,1.8,2471.768,13.29,0.071,137.8
2024-05-05T05:10:03,42.805,6.029,0.034,-0.057,-0.003,107.0,107.0,102.0,13.4,1505.2,8.4,-0.8,1.8,2471.777,13.29,0.066,149.2
2024-05-05T05:13:03,42.805,6.029,0.042,-0.029,0.028,107.0,106.0,103.0,13.3,1505.2,354.6,-0.8,1.8,2471.741,13.29,0.051,124.6
2024-05-05T05:16:03,42.805,6.029,0.027,-0.023,0.006,107.0,107.0,104.0,13.4,1505.2,4.1,-0.7,1.8,2471.739,13.29,0.035,130.4
2024-05-05T05:19:03,42.805,6.029,0.037,-0.034,0.004,107.0,106.0,104.0,13.4,1505.2,9.9,-0.8,1.8,2471.699,13.29,0.05,132.6
2024-05-05T05:22:03,42.805,6.029,0.027,-0.029,-0.012,107.0,108.0,103.0,13.4,1505.2,354.7,-0.8,1.8,2471.742,13.29,0.039,137.0
2024-05-05T05:25:03,42.805,6.029,0.016,-0.029,0.006,108.0,108.0,104.0,13.3,1505.2,4.3,-0.8,1.8,2471.734,13.29,0.033,151.1
2024-05-05T05:28:03,42.805,6.029,0.026,-0.031,-0.001,108.0,107.0,104.0,13.3,1505.2,359.4,-0.8,1.8,2471.724,13.29,0.04,140.0
2024-05-05T05:31:03,42.805,6.029,0.044,-0.033,0.012,107.0,107.0,102.0,13.4,1505.2,355.2,-0.8,1.8,2471.676,13.29,0.055,126.9
2024-05-05T05:34:03,42.805,6.029,0.041,-0.039,-0.003,106.0,106.0,104.0,13.4,1505.2,0.0,-0.8,1.8,2471.693,13.29,0.056,133.6
2024-05-05T05:37:03,42.805,6.029,0.031,-0.035,0.001,107.0,108.0,104.0,13.4,1505.2,9.9,-0.8,1.8,2471.718,13.29,0.046,138.5
2024-05-05T05:40:03,42.805,6.029,0.046,-0.053,0.045,106.0,108.0,104.0,13.4,1505.2,5.5,-0.8,1.8,2471.743,13.29,0.07,139.0
2024-05-05T05:43:03,42.805,6.029,0.033,-0.016,0.021,107.0,108.0,103.0,13.4,1505.2,355.2,-0.8,1.8,2471.765,13.29,0.036,115.9
2024-05-05T05:46:03,42.805,6.029,0.039,-0.024,0.004,108.0,107.0,103.0,13.4,1505.2,0.5,-0.8,1.8,2471.702,13.29,0.045,121.6
2024-05-05T05:49:03,42.805,6.029,0.049,-0.024,0.023,107.0,107.0,103.0,13.4,1505.2,2.0,-0.7,1.8,2471.694,13.29,0.054,116.1
2024-05-05T05:52:03,42.805,6.029,0.035,-0.037,0.014,107.0,109.0,103.0,13.3,1505.2,2.1,-0.7,1.8,2471.678,13.29,0.05,136.6
2024-05-05T05:55:03,42.805,6.029,0.029,-0.043,0.011,107.0,107.0,104.0,13.4,1505.2,10.3,-0.8,1.8,2471.711,13.29,0.051,146.0
2024-05-05T05:58:03,42.805,6.029,0.028,-0.032,0.013,107.0,107.0,103.0,13.3,1505.2,354.5,-0.8,1.8,2471.686,13.29,0.042,138.8
2024-05-05T06:04:03,42.805,6.029,0.036,-0.039,0.021,107.0,109.0,104.0,13.3,1505.2,9.9,-0.7,1.8,2471.722,13.28,0.053,137.3
2024-05-05T06:07:03,42.805,6.029,0.042,-0.04,0.013,108.0,108.0,104.0,13.3,1505.2,356.4,-0.8,1.8,2471.745,13.29,0.057,133.6
2024-05-05T06:10:03,42.805,6.029,0.028,-0.031,-0.024,107.0,107.0,104.0,13.4,1505.2,6.3,-0.7,1.8,2471.705,13.29,0.041,137.9
2024-05-05T06:13:03,42.805,6.029,0.032,-0.034,0.017,107.0,107.0,104.0,13.3,1505.2,353.7,-0.8,1.8,2471.75,13.29,0.046,136.7
2024-05-05T06:16:03,42.805,6.029,0.041,-0.034,0.036,108.0,107.0,103.0,13.4,1505.2,6.8,-0.8,1.8,2471.686,13.29,0.053,129.7
2024-05-05T06:19:03,42.805,6.029,0.004,-0.031,0.024,106.0,107.0,103.0,13.3,1505.2,1.0,-0.8,1.8,2471.723,13.29,0.031,172.7
2024-05-05T06:22:03,42.805,6.029,0.038,-0.042,0.039,107.0,108.0,104.0,13.4,1505.2,358.4,-0.8,1.8,2471.736,13.29,0.056,137.9
2024-05-05T06:25:03,42.805,6.029,0.04,-0.034,0.006,107.0,107.0,103.0,13.4,1505.2,357.8,-0.8,1.8,2471.72,13.29,0.052,130.4
2024-05-05T06:28:03,42.805,6.029,0.034,-0.044,0.023,107.0,107.0,103.0,13.4,1505.2,9.1,-0.7,1.8,2471.731,13.29,0.055,142.3
2024-05-05T06:31:03,42.805,6.029,0.045,-0.034,0.031,107.0,107.0,103.0,13.4,1505.2,9.1,-0.8,1.8,2471.711,13.29,0.056,127.1
2024-05-05T06:34:03,42.805,6.029,0.031,-0.065,0.034,106.0,108.0,104.0,13.4,1505.2,10.2,-0.8,1.8,2471.704,13.29,0.072,154.5
2024-05-05T06:37:03,42.805,6.029,0.04,-0.046,0.0,107.0,106.0,103.0,13.3,1505.2,356.7,-0.7,1.8,2471.668,13.29,0.06,139.0
2024-05-05T06:40:03,42.805,6.029,0.009,-0.041,-0.008,106.0,107.0,104.0,13.4,1505.2,4.1,-0.7,1.8,2471.679,13.29,0.041,167.6
2024-05-05T06:43:03,42.805,6.029,0.042,-0.038,0.001,107.0,108.0,105.0,13.4,1505.2,359.4,-0.8,1.8,2471.691,13.29,0.056,132.1
2024-05-05T06:46:03,42.805,6.029,0.014,-0.032,-0.004,108.0,106.0,104.0,13.4,1505.2,3.1,-0.8,1.8,2471.694,13.29,0.034,156.4
2024-05-05T06:49:03,42.805,6.029,0.029,-0.04,-0.014,108.0,107.0,103.0,13.4,1505.2,5.5,-0.8,1.9,2471.692,13.29,0.049,144.1
2024-05-05T06:52:03,42.805,6.029,0.039,-0.042,0.041,106.0,107.0,104.0,13.4,1505.2,358.9,-0.7,1.8,2471.692,13.29,0.057,137.1
2024-05-05T06:55:03,42.805,6.029,0.016,-0.029,0.004,107.0,107.0,103.0,13.4,1505.2,358.3,-0.8,1.8,2471.692,13.29,0.033,151.1
2024-05-05T06:58:03,42.805,6.029,0.016,-0.042,0.009,106.0,105.0,104.0,13.4,1505.2,9.3,-0.8,1.8,2471.661,13.29,0.044,159.1
2024-05-05T07:04:03,42.805,6.029,0.035,-0.058,0.0,106.0,106.0,103.0,13.3,1505.2,2.2,-0.7,1.8,2471.705,13.28,0.067,148.9
2024-05-05T07:07:03,42.805,6.029,0.029,-0.041,0.009,107.0,107.0,104.0,13.4,1505.2,5.4,-0.8,1.8,2471.707,13.29,0.05,144.7
2024-05-05T07:10:03,42.805,6.029,0.023,-0.057,-0.001,108.0,107.0,103.0,13.4,1505.2,9.5,-0.7,1.8,2471.694,13.29,0.061,158.0
2024-05-05T07:13:03,42.805,6.029,0.037,-0.044,0.0,107.0,106.0,104.0,13.4,1505.2,354.1,-0.7,1.8,2471.697,13.29,0.057,139.9
2024-05-05T07:16:03,42.805,6.029,0.022,-0.018,0.019,107.0,106.0,103.0,13.4,1505.2,3.5,-0.8,1.8,2471.685,13.29,0.028,129.3
2024-05-05T07:19:03,42.805,6.029,0.042,-0.03,0.018,107.0,108.0,104.0,13.4,1505.2,9.1,-0.7,1.8,2471.677,13.29,0.051,125.5
2024-05-05T07:22:03,42.805,6.029,0.026,-0.038,-0.003,106.0,107.0,103.0,13.4,1505.2,0.9,-0.7,1.8,2471.665,13.29,0.046,145.6
2024-05-05T07:25:03,42.805,6.029,0.038,-0.038,0.002,107.0,106.0,103.0,13.3,1505.2,353.4,-0.7,1.9,2471.669,13.29,0.053,135.0
2024-05-05T07:28:03,42.805,6.029,0.014,-0.034,0.004,108.0,107.0,104.0,13.4,1505.2,1.1,-0.7,1.8,2471.669,13.29,0.036,157.6
2024-05-05T07:31:03,42.805,6.029,0.032,-0.039,0.029,106.0,106.0,104.0,13.3,1505.2,359.4,-0.7,1.8,2471.664,13.29,0.05,140.6
2024-05-05T07:34:03,42.805,6.029,0.009,-0.022,0.02,108.0,106.0,102.0,13.4,1505.2,353.6,-0.8,1.8,2471.662,13.29,0.023,157.8
2024-05-05T07:37:03,42.805,6.029,0.027,-0.048,0.017,107.0,106.0,103.0,13.4,1505.2,5.7,-0.7,1.8,2471.626,13.29,0.055,150.6
2024-05-05T07:40:03,42.805,6.029,0.024,-0.043,0.015,108.0,106.0,102.0,13.4,1505.2,10.0,-0.8,1.8,2471.595,13.29,0.049,150.8
2024-05-05T07:43:03,42.805,6.029,0.015,-0.03,0.001,106.0,107.0,104.0,13.4,1505.2,355.8,-0.8,1.8,2471.636,13.29,0.033,153.4
2024-05-05T07:46:03,42.805,6.029,0.021,-0.025,-0.03,107.0,107.0,103.0,13.4,1505.2,3.8,-0.7,1.8,2471.653,13.29,0.032,140.0
2024-05-05T07:49:03,42.805,6.029,0.016,-0.021,0.011,107.0,107.0,105.0,13.3,1505.2,5.4,-0.7,1.9,2471.647,13.29,0.026,142.7
2024-05-05T07:52:03,42.805,6.029,0.007,-0.033,0.012,106.0,107.0,103.0,13.3,1505.2,8.1,-0.8,1.8,2471.637,13.29,0.033,168.0
2024-05-05T07:55:03,42.805,6.029,0.026,-0.022,0.005,106.0,105.0,103.0,13.3,1505.2,8.3,-0.8,1.8,2471.59,13.29,0.034,130.2
2024-05-05T07:58:03,42.805,6.029,0.008,-0.045,-0.025,107.0,106.0,103.0,13.4,1505.2,1.4,-0.8,1.8,2471.627,13.29,0.045,169.9
2024-05-05T08:04:03,42.805,6.029,0.008,-0.066,0.026,106.0,106.0,103.0,13.4,1505.2,6.3,-0.8,1.8,2471.654,13.29,0.066,173.1
2024-05-05T08:07:03,42.805,6.029,0.015,-0.055,0.018,107.0,107.0,104.0,13.4,1505.2,9.0,-0.8,1.8,2471.679,13.29,0.057,164.7
2024-05-05T08:10:03,42.805,6.029,0.008,-0.037,0.003,107.0,106.0,103.0,13.4,1505.2,358.5,-0.8,1.8,2471.646,13.29,0.037,167.8
2024-05-05T08:13:03,42.805,6.029,0.017,-0.031,-0.003,107.0,106.0,103.0,13.3,1505.2,1.5,-0.7,1.8,2471.633,13.29,0.035,151.3
2024-05-05T08:16:03,42.805,6.029,0.01,-0.045,0.025,106.0,107.0,103.0,13.3,1505.2,8.7,-0.8,1.8,2471.631,13.29,0.046,167.5
2024-05-05T08:19:03,42.805,6.029,0.02,-0.032,0.007,107.0,106.0,103.0,13.3,1505.2,3.5,-0.7,1.8,2471.615,13.29,0.037,148.0
2024-05-05T08:22:03,42.805,6.029,0.015,-0.037,0.006,107.0,107.0,103.0,13.4,1505.2,3.5,-0.7,1.8,2471.625,13.29,0.039,157.9
2024-05-05T08:25:03,42.805,6.029,0.028,-0.033,0.004,107.0,106.0,104.0,13.4,1505.2,355.9,-0.8,1.8,2471.645,13.29,0.043,139.7
2024-05-05T08:28:03,42.805,6.029,0.025,-0.024,-0.014,107.0,106.0,103.0,13.3,1505.2,356.7,-0.8,1.8,2471.625,13.29,0.034,133.8
2024-05-05T08:31:03,42.805,6.029,0.023,-0.046,0.003,106.0,106.0,103.0,13.3,1505.2,4.1,-0.8,1.8,2471.604,13.29,0.051,153.4
2024-05-05T08:34:03,42.805,6.029,0.016,-0.044,0.034,107.0,107.0,103.0,13.4,1505.2,5.9,-0.8,1.8,2471.591,13.29,0.046,160.0
2024-05-05T08:37:03,42.805,6.029,0.011,-0.037,-0.007,106.0,106.0,103.0,13.4,1505.2,9.0,-0.7,1.8,2471.579,13.29,0.038,163.4
2024-05-05T08:40:03,42.805,6.029,0.014,-0.019,0.019,106.0,106.0,103.0,13.4,1505.2,355.3,-0.8,1.8,2471.604,13.29,0.023,143.6
2024-05-05T08:43:03,42.805,6.029,0.025,-0.058,0.025,107.0,106.0,104.0,13.3,1505.2,5.5,-0.7,1.8,2471.608,13.29,0.063,156.7
2024-05-05T08:46:03,42.805,6.029,0.029,-0.017,-0.016,108.0,106.0,103.0,13.3,1505.2,358.3,-0.8,1.8,2471.573,13.29,0.033,120.4
2024-05-05T08:49:03,42.805,6.029,0.012,-0.048,0.008,106.0,106.0,104.0,13.4,1505.2,3.7,-0.7,1.8,2471.623,13.29,0.049,166.0
2024-05-05T08:52:03,42.805,6.029,0.017,-0.047,0.015,107.0,106.0,103.0,13.4,1505.2,1.9,-0.8,1.8,2471.576,13.29,0.049,160.1
2024-05-05T08:55:03,42.805,6.029,0.022,-0.021,-0.03,106.0,106.0,103.0,13.4,1505.2,355.1,-0.8,1.8,2471.595,13.29,0.03,133.7
2024-05-05T08:58:03,42.805,6.029,0.021,-0.021,-0.004,107.0,106.0,104.0,13.4,1505.2,5.0,-0.8,1.8,2471.584,13.29,0.029,135.0
2024-05-05T09:04:03,42.805,6.029,0.018,-0.06,0.011,108.0,106.0,103.0,13.3,1505.2,9.2,-0.8,1.8,2471.619,13.29,0.062,163.3
2024-05-05T09:07:03,42.805,6.029,0.028,-0.04,-0.029,107.0,107.0,103.0,13.3,1505.2,359.4,-0.7,1.8,2471.629,13.29,0.048,145.0
2024-05-05T09:10:03,42.805,6.029,0.047,-0.059,-0.001,106.0,106.0,103.0,13.4,1505.2,3.7,-0.8,1.8,2471.61,13.29,0.075,141.5
2024-05-05T09:13:03,42.805,6.029,0.016,-0.036,0.041,106.0,106.0,104.0,13.4,1505.2,357.0,-0.8,1.8,2471.578,13.29,0.039,156.0
2024-05-05T09:16:03,42.805,6.029,0.045,-0.051,0.005,106.0,105.0,104.0,13.3,1505.2,3.8,-0.8,1.8,2471.544,13.29,0.068,138.6
2024-05-05T09:19:03,42.805,6.029,0.018,-0.038,0.014,107.0,107.0,104.0,13.3,1505.2,0.0,-0.7,1.8,2471.554,13.29,0.042,154.7
2024-05-05T09:22:03,42.805,6.029,0.023,-0.039,0.033,108.0,106.0,103.0,13.4,1505.2,6.7,-0.8,1.8,2471.586,13.29,0.045,149.5
2024-05-05T09:25:03,42.805,6.029,0.003,-0.043,0.012,107.0,108.0,104.0,13.4,1505.2,9.9,-0.8,1.8,2471.547,13.29,0.043,176.0
2024-05-05T09:28:03,42.805,6.029,0.011,-0.04,0.015,107.0,107.0,103.0,13.4,1505.2,356.9,-0.7,1.8,2471.56,13.29,0.041,164.6
2024-05-05T09:31:03,42.805,6.029,0.017,-0.04,0.017,106.0,107.0,104.0,13.4,1505.2,6.6,-0.8,1.8,2471.522,13.29,0.043,157.0
2024-05-05T09:34:03,42.805,6.029,0.025,-0.046,-0.005,107.0,105.0,104.0,13.4,1505.2,2.7,-0.7,1.8,2471.53,13.29,0.052,151.5
2024-05-05T09:37:03,42.805,6.029,0.039,-0.04,0.008,107.0,106.0,104.0,13.4,1505.2,1.5,-0.8,1.8,2471.543,13.29,0.055,135.7
2024-05-05T09:40:03,42.805,6.029,0.019,-0.023,0.002,108.0,107.0,103.0,13.3,1505.2,7.7,-0.8,1.8,2471.517,13.29,0.029,140.4
2024-05-05T09:43:03,42.805,6.029,0.027,-0.036,0.004,107.0,106.0,103.0,13.3,1505.2,8.1,-0.8,1.8,2471.556,13.29,0.045,143.1
2024-05-05T09:46:03,42.805,6.029,0.037,-0.02,0.0,107.0,108.0,104.0,13.3,1505.2,7.4,-0.8,1.8,2471.545,13.29,0.042,118.4
2024-05-05T09:49:03,42.805,6.029,0.029,-0.025,-0.011,108.0,106.0,103.0,13.4,1505.2,10.8,-0.8,1.8,2471.535,13.29,0.038,130.8
2024-05-05T09:52:03,42.805,6.029,0.027,-0.033,0.012,107.0,108.0,104.0,13.4,1505.2,357.0,-0.8,1.8,2471.541,13.29,0.042,140.7
2024-05-05T09:55:03,42.805,6.029,0.024,-0.036,-0.01,107.0,107.0,104.0,13.3,1505.2,6.8,-0.8,1.8,2471.533,13.29,0.043,146.3
2024-05-05T09:58:03,42.805,6.029,0.021,-0.05,-0.001,107.0,106.0,104.0,13.4,1505.2,5.2,-0.8,1.8,2471.517,13.29,0.054,157.2
2024-05-05T10:04:03,42.805,6.029,0.018,-0.054,-0.012,107.0,106.0,103.0,13.4,1505.2,9.6,-0.8,1.8,2471.593,13.28,0.056,161.6
2024-05-05T10:07:03,42.805,6.029,0.021,-0.032,0.004,107.0,106.0,104.0,13.4,1505.2,8.7,-0.7,1.9,2471.538,13.29,0.038,146.7
2024-05-05T10:10:03,42.805,6.029,0.032,-0.032,-0.034,107.0,106.0,103.0,13.3,1505.2,359.5,-0.8,1.8,2471.533,13.29,0.045,135.0
2024-05-05T10:13:03,42.805,6.029,0.018,-0.038,0.023,106.0,107.0,104.0,13.4,1505.2,355.0,-0.7,1.8,2471.525,13.29,0.042,154.7
2024-05-05T10:16:03,42.805,6.029,0.037,-0.042,-0.013,106.0,106.0,103.0,13.4,1505.2,5.3,-0.8,1.8,2471.506,13.29,0.055,138.6
2024-05-05T10:19:03,42.805,6.029,0.018,-0.047,0.009,107.0,106.0,103.0,13.4,1505.2,359.4,-0.7,1.8,2471.537,13.29,0.05,159.0
2024-05-05T10:22:03,42.805,6.029,0.011,-0.041,0.014,107.0,106.0,103.0,13.4,1505.2,0.4,-0.7,1.8,2471.505,13.29,0.042,165.0
2024-05-05T10:25:03,42.805,6.029,0.046,-0.029,0.007,107.0,106.0,104.0,13.3,1505.2,353.2,-0.7,1.8,2471.506,13.29,0.054,122.2
2024-05-05T10:28:03,42.805,6.029,0.019,-0.039,-0.001,107.0,105.0,102.0,13.4,1505.2,3.7,-0.7,1.8,2471.536,13.29,0.043,154.0
2024-05-05T10:31:03,42.805,6.029,0.035,-0.04,0.009,106.0,105.0,103.0,13.3,1505.2,0.5,-0.8,1.8,2471.487,13.29,0.053,138.8
2024-05-05T10:34:03,42.805,6.029,0.021,-0.052,0.007,106.0,105.0,103.0,13.3,1505.2,7.3,-0.8,1.8,2471.459,13.29,0.056,158.0
2024-05-05T10:37:03,42.805,6.029,0.024,-0.039,0.012,107.0,106.0,103.0,13.4,1505.2,7.9,-0.7,1.8,2471.518,13.29,0.045,148.4
2024-05-05T10:40:03,42.805,6.029,0.02,-0.039,0.003,106.0,105.0,103.0,13.4,1505.2,0.5,-0.7,1.8,2471.525,13.29,0.043,152.9
2024-05-05T10:43:03,42.805,6.029,0.017,-0.047,-0.004,107.0,105.0,103.0,13.4,1505.2,4.1,-0.8,1.8,2471.448,13.29,0.049,160.1
2024-05-05T10:46:03,42.805,6.029,0.025,-0.022,0.015,107.0,107.0,103.0,13.4,1505.2,5.3,-0.8,1.8,2471.463,13.29,0.033,131.3
2024-05-05T10:49:03,42.805,6.029,0.026,-0.05,0.004,107.0,106.0,104.0,13.4,1505.2,2.4,-0.8,1.8,2471.488,13.29,0.056,152.5
2024-05-05T10:52:03,42.805,6.029,0.025,-0.023,-0.025,106.0,106.0,103.0,13.4,1505.2,355.4,-0.8,1.8,2471.504,13.29,0.033,132.6
2024-05-05T10:55:03,42.805,6.029,0.024,-0.042,0.026,108.0,105.0,103.0,13.4,1505.2,6.6,-0.8,1.8,2471.522,13.29,0.048,150.3
2024-05-05T10:58:03,42.805,6.029,0.025,-0.047,0.015,107.0,105.0,104.0,13.3,1505.2,8.5,-0.8,1.8,2471.487,13.29,0.053,152.0
2024-05-05T11:04:03,42.805,6.029,0.035,-0.023,0.021,107.0,107.0,102.0,13.4,1505.2,0.5,-0.8,1.8,2471.496,13.28,0.041,123.3
2024-05-05T11:07:03,42.805,6.029,0.033,-0.036,0.0,106.0,106.0,102.0,13.4,1505.2,359.4,-0.8,1.8,2471.474,13.29,0.048,137.5